Location: Fort Wayne
(41.1310°N, 85.1290°W)
Time: 11:32:19
(UTC-05:00)

Tiros 1 despin weight - Visible Passes

Search period start: 21 December 2014 00:00
Search period end: 31 December 2014 00:00
Orbit: 600 x 649 km, 48.2° (Epoch: 20 December)

Date Brightness Start Highest point End Pass type
(mag) Time Alt. Az. Time Alt. Az. Time Alt. Az.
23 Dec ? 07:32:33 10° SSE 07:34:07 12° SE 07:35:40 10° ESE visible
26 Dec ? 06:45:24 10° S 06:48:24 18° SE 06:51:24 10° E visible
27 Dec ? 07:02:46 10° SSW 07:06:50 35° SE 07:10:53 10° ENE visible
28 Dec ? 05:42:21 10° SSE 05:44:20 13° SE 05:46:19 10° ESE visible
28 Dec ? 07:20:57 10° SW 07:25:24 67° SSE 07:29:49 10° ENE visible
29 Dec ? 05:58:57 10° SSW 06:02:41 26° SE 06:06:24 10° E visible
30 Dec ? 06:17:33 14° SW 06:21:10 50° SE 06:25:29 10° ENE visible
